TimeEDT,TemperatureF,Dew PointF,Humidity,Sea Level PressureIn,VisibilityMPH,Wind Direction,Wind SpeedMPH,Gust SpeedMPH,PrecipitationIn,Events,Conditions,WindDirDegrees,DateUTC
12:00 AM,73.4,71.6,94,30.15,6.2,ESE,5.8,-,N/A,Rain,Light Rain,110,2013-07-17 04:00:00
12:40 AM,73.4,71.6,94,30.11,6.2,ENE,3.5,-,N/A,Rain-Thunderstorm,Thunderstorms and Rain,60,2013-07-17 04:40:00
2:00 AM,75,74,98,30.10,8,Calm,Calm,,,Rain,Light Rain,,2013-07-17 06:00:00
2:00 AM,75.2,75.2,100,30.09,6.2,Calm,Calm,-,N/A,Rain,Light Rain,0,2013-07-17 06:00:00
3:00 AM,75.2,71.6,89,30.07,6.2,Calm,Calm,-,N/A,,Overcast,0,2013-07-17 07:00:00
5:00 AM,76,74,91,30.09,6,East,8.1,,,Rain,Heavy Rain Showers,90,2013-07-17 09:00:00
5:00 AM,75.2,73.4,94,30.08,5.6,East,8.1,-,N/A,Rain,Rain Showers,90,2013-07-17 09:00:00
7:00 AM,73.4,69.8,88,30.14,3.7,SE,6.9,-,N/A,Rain,Rain,140,2013-07-17 11:00:00
8:00 AM,74,73,97,30.12,4,SE,6.9,,,Rain,Light Rain,130,2013-07-17 12:00:00
8:00 AM,73.4,73.4,100,30.12,6.2,SE,6.9,-,N/A,Rain,Light Rain,130,2013-07-17 12:00:00
9:00 AM,71.6,69.8,94,30.12,-9999.0,North,-9999.0,-,N/A,Rain,Light Rain,0,2013-07-17 13:00:00
10:00 AM,75.2,71.6,89,30.13,3.7,East,5.8,-,N/A,Rain,Light Rain,90,2013-07-17 14:00:00
11:00 AM,76,72,86,30.14,7,East,8.1,,,,,90,2013-07-17 15:00:00
11:00 AM,77.0,73.4,89,30.14,6.2,East,8.1,-,N/A,,Mostly Cloudy,90,2013-07-17 15:00:00
12:00 PM,77.0,71.6,83,30.12,6.2,North,-9999.0,-,N/A,,Mostly Cloudy,0,2013-07-17 16:00:00
1:00 PM,78.8,71.6,78,30.13,6.2,East,5.8,-,N/A,,Mostly Cloudy,90,2013-07-17 17:00:00
2:00 PM,80,73,74,30.13,8,East,5.8,,,,Partly Cloudy,90,2013-07-17 18:00:00
2:00 PM,80.6,73.4,79,30.13,6.2,East,5.8,-,N/A,,Mostly Cloudy,90,2013-07-17 18:00:00
3:00 PM,80.6,71.6,74,30.10,6.2,East,6.9,-,N/A,,Mostly Cloudy,90,2013-07-17 19:00:00
4:00 PM,82.4,73.4,74,30.09,6.2,East,5.8,-,N/A,,Mostly Cloudy,80,2013-07-17 20:00:00
5:00 PM,83,73,64,30.07,8,East,6.9,,,,Partly Cloudy,80,2013-07-17 21:00:00
5:00 PM,82.4,73.4,74,30.07,6.2,East,6.9,-,N/A,,Mostly Cloudy,80,2013-07-17 21:00:00
7:00 PM,78.8,71.6,78,30.06,6.2,East,4.6,-,N/A,,Mostly Cloudy,90,2013-07-17 23:00:00
8:00 PM,79,73,78,30.08,8,East,6.9,,,,Partly Cloudy,100,2013-07-18 00:00:00
8:00 PM,78.8,73.4,83,30.07,6.2,East,6.9,-,N/A,,Mostly Cloudy,100,2013-07-18 00:00:00
9:00 PM,77.0,71.6,83,30.09,6.2,East,5.8,-,N/A,,Mostly Cloudy,100,2013-07-18 01:00:00
10:00 PM,77.0,71.6,83,30.11,6.2,East,4.6,-,N/A,,Mostly Cloudy,90,2013-07-18 02:00:00
11:00 PM,78.8,73.4,83,30.11,6.2,East,3.5,-,N/A,,Mostly Cloudy,90,2013-07-18 03:00:00